contact:dominique.lefevre@mio.osupytheas.fr, maurice.libes@osupytheas.fr, didier.mallarino@osupytheas.fr
Project:EMSO http://www.emso-fr.org/EMSO-France
Depth: 2436.0 m
Title:EMSO Ligure Ouest : Data MII capteur MICROCAT
DateTime_Computer,Latitude,Longitude,Temperature,Conductivity,Pressure,DateTime_Instrument
DateTime_Computer,Latitude,Longitude,degC,S m-1,dbar,DateTime_Instrument
2019-08-28T00:02:39Z,42.805,6.029,13.2958,4.59985,2469.867,2019-8-28T02:03:00Z
2019-08-28T00:05:42Z,42.805,6.029,13.2967,4.59979,2469.867,2019-8-28T02:06:04Z
2019-08-28T00:08:45Z,42.805,6.029,13.2958,4.59960,2469.83,2019-8-28T02:09:07Z
2019-08-28T00:11:48Z,42.805,6.029,13.2960,4.59962,2469.83,2019-8-28T02:12:10Z
2019-08-28T00:14:51Z,42.805,6.029,13.2962,4.59961,2469.821,2019-8-28T02:15:13Z
2019-08-28T00:17:55Z,42.805,6.029,13.2961,4.59959,2469.844,2019-8-28T02:18:16Z
2019-08-28T00:20:58Z,42.805,6.029,13.2962,4.59969,2469.844,2019-8-28T02:21:19Z
2019-08-28T00:24:01Z,42.805,6.029,13.2964,4.60009,2469.844,2019-8-28T02:24:23Z
2019-08-28T00:27:04Z,42.805,6.029,13.2964,4.59999,2469.853,2019-8-28T02:27:26Z
2019-08-28T00:30:07Z,42.805,6.029,13.2971,4.59989,2469.844,2019-8-28T02:30:29Z
2019-08-28T00:33:11Z,42.805,6.029,13.2965,4.60008,2469.806,2019-8-28T02:33:32Z
2019-08-28T00:36:14Z,42.805,6.029,13.2963,4.60021,2469.867,2019-8-28T02:36:36Z
2019-08-28T00:39:17Z,42.805,6.029,13.2964,4.60019,2469.853,2019-8-28T02:39:39Z
2019-08-28T00:42:20Z,42.805,6.029,13.2964,4.60001,2469.844,2019-8-28T02:42:42Z
2019-08-28T00:45:23Z,42.805,6.029,13.2961,4.60039,2469.83,2019-8-28T02:45:45Z
2019-08-28T00:48:27Z,42.805,6.029,13.2996,4.60072,2469.83,2019-8-28T02:48:48Z
2019-08-28T00:51:30Z,42.805,6.029,13.2965,4.60051,2469.844,2019-8-28T02:51:51Z
2019-08-28T00:54:33Z,42.805,6.029,13.2963,4.60042,2469.83,2019-8-28T02:54:55Z
2019-08-28T00:57:36Z,42.805,6.029,13.2964,4.60050,2469.867,2019-8-28T02:57:58Z
2019-08-28T01:00:40Z,42.805,6.029,13.2960,4.60045,2469.853,2019-8-28T03:01:01Z
2019-08-28T01:03:43Z,42.805,6.029,13.2958,4.60053,2469.844,2019-8-28T03:04:04Z
2019-08-28T01:06:46Z,42.805,6.029,13.2958,4.60053,2469.853,2019-8-28T03:07:08Z
2019-08-28T01:09:49Z,42.805,6.029,13.2966,4.60046,2469.853,2019-8-28T03:10:11Z
2019-08-28T01:12:52Z,42.805,6.029,13.2959,4.60077,2469.834,2019-8-28T03:13:14Z
2019-08-28T01:15:55Z,42.805,6.029,13.2957,4.60083,2469.806,2019-8-28T03:16:17Z
2019-08-28T01:18:59Z,42.805,6.029,13.2968,4.60033,2469.867,2019-8-28T03:19:20Z
2019-08-28T01:22:02Z,42.805,6.029,13.2985,4.60031,2469.867,2019-8-28T03:22:24Z
2019-08-28T01:25:05Z,42.805,6.029,13.2963,4.60064,2469.83,2019-8-28T03:25:27Z
2019-08-28T01:28:08Z,42.805,6.029,13.2959,4.60014,2469.844,2019-8-28T03:28:30Z
2019-08-28T01:31:12Z,42.805,6.029,13.2959,4.59997,2469.867,2019-8-28T03:31:33Z
2019-08-28T01:34:15Z,42.805,6.029,13.2958,4.59997,2469.867,2019-8-28T03:34:36Z
2019-08-28T01:37:18Z,42.805,6.029,13.2960,4.59999,2469.853,2019-8-28T03:37:40Z
2019-08-28T01:40:21Z,42.805,6.029,13.2959,4.59992,2469.867,2019-8-28T03:40:43Z
2019-08-28T01:43:24Z,42.805,6.029,13.2958,4.60000,2469.83,2019-8-28T03:43:46Z
2019-08-28T01:46:27Z,42.805,6.029,13.2958,4.60020,2469.844,2019-8-28T03:46:49Z
2019-08-28T01:49:31Z,42.805,6.029,13.2961,4.60007,2469.867,2019-8-28T03:49:52Z
2019-08-28T01:52:34Z,42.805,6.029,13.2963,4.59999,2469.867,2019-8-28T03:52:56Z
2019-08-28T01:55:37Z,42.805,6.029,13.2959,4.60003,2469.876,2019-8-28T03:55:59Z
2019-08-28T01:58:40Z,42.805,6.029,13.2958,4.60043,2469.867,2019-8-28T03:59:02Z
2019-08-28T02:01:43Z,42.805,6.029,13.2964,4.60028,2469.867,2019-8-28T04:02:05Z
2019-08-28T02:04:47Z,42.805,6.029,13.2959,4.60020,2469.83,2019-8-28T04:05:08Z
2019-08-28T02:07:50Z,42.805,6.029,13.2954,4.60034,2469.853,2019-8-28T04:08:11Z
2019-08-28T02:10:53Z,42.805,6.029,13.2961,4.60035,2469.867,2019-8-28T04:11:15Z
2019-08-28T02:13:56Z,42.805,6.029,13.2984,4.60001,2469.867,2019-8-28T04:14:18Z
2019-08-28T02:16:59Z,42.805,6.029,13.3016,4.60022,2469.89,2019-8-28T04:17:21Z
2019-08-28T02:20:03Z,42.805,6.029,13.3031,4.60014,2469.876,2019-8-28T04:20:24Z
2019-08-28T02:23:06Z,42.805,6.029,13.2961,4.60085,2469.853,2019-8-28T04:23:28Z
2019-08-28T02:26:09Z,42.805,6.029,13.2961,4.60039,2469.876,2019-8-28T04:26:31Z
2019-08-28T02:29:12Z,42.805,6.029,13.2966,4.60033,2469.876,2019-8-28T04:29:34Z
2019-08-28T02:32:15Z,42.805,6.029,13.2962,4.60057,2469.853,2019-8-28T04:32:37Z
2019-08-28T02:35:19Z,42.805,6.029,13.2960,4.60059,2469.853,2019-8-28T04:35:40Z
2019-08-28T02:38:22Z,42.805,6.029,13.2964,4.60001,2469.853,2019-8-28T04:38:44Z
2019-08-28T02:41:25Z,42.805,6.029,13.2961,4.59999,2469.876,2019-8-28T04:41:47Z
2019-08-28T02:44:28Z,42.805,6.029,13.2958,4.59977,2469.876,2019-8-28T04:44:50Z
2019-08-28T02:47:32Z,42.805,6.029,13.2962,4.59973,2469.914,2019-8-28T04:47:53Z
2019-08-28T02:50:35Z,42.805,6.029,13.2963,4.59966,2469.89,2019-8-28T04:50:56Z
2019-08-28T02:53:38Z,42.805,6.029,13.2962,4.59978,2469.876,2019-8-28T04:54:00Z
2019-08-28T02:56:41Z,42.805,6.029,13.2957,4.59991,2469.89,2019-8-28T04:57:03Z
2019-08-28T02:59:44Z,42.805,6.029,13.2967,4.59981,2469.89,2019-8-28T05:00:06Z
2019-08-28T03:02:48Z,42.805,6.029,13.2958,4.59993,2469.876,2019-8-28T05:03:09Z
2019-08-28T03:05:51Z,42.805,6.029,13.2957,4.59990,2469.914,2019-8-28T05:06:13Z
2019-08-28T03:08:54Z,42.805,6.029,13.2968,4.59989,2469.89,2019-8-28T05:09:16Z
2019-08-28T03:11:57Z,42.805,6.029,13.2968,4.60026,2469.876,2019-8-28T05:12:19Z
2019-08-28T03:15:00Z,42.805,6.029,13.2969,4.60022,2469.9,2019-8-28T05:15:22Z
2019-08-28T03:18:04Z,42.805,6.029,13.2963,4.60005,2469.9,2019-8-28T05:18:25Z
2019-08-28T03:21:07Z,42.805,6.029,13.2957,4.59994,2469.914,2019-8-28T05:21:29Z
2019-08-28T03:24:10Z,42.805,6.029,13.2958,4.59986,2469.9,2019-8-28T05:24:32Z
2019-08-28T03:27:13Z,42.805,6.029,13.2957,4.59979,2469.914,2019-8-28T05:27:35Z
2019-08-28T03:30:17Z,42.805,6.029,13.2958,4.59979,2469.937,2019-8-28T05:30:38Z
2019-08-28T03:33:20Z,42.805,6.029,13.2957,4.59985,2469.89,2019-8-28T05:33:41Z
2019-08-28T03:36:23Z,42.805,6.029,13.2958,4.59991,2469.923,2019-8-28T05:36:45Z
2019-08-28T03:39:26Z,42.805,6.029,13.2957,4.59982,2469.923,2019-8-28T05:39:48Z
2019-08-28T03:42:29Z,42.805,6.029,13.2958,4.59975,2469.937,2019-8-28T05:42:51Z
2019-08-28T03:45:32Z,42.805,6.029,13.2958,4.59973,2469.923,2019-8-28T05:45:54Z
2019-08-28T03:48:36Z,42.805,6.029,13.2959,4.59979,2469.937,2019-8-28T05:48:57Z
2019-08-28T03:51:39Z,42.805,6.029,13.2955,4.59986,2469.9,2019-8-28T05:52:01Z
2019-08-28T03:54:42Z,42.805,6.029,13.2957,4.59984,2469.9,2019-8-28T05:55:04Z
2019-08-28T03:57:45Z,42.805,6.029,13.2959,4.59973,2469.937,2019-8-28T05:58:07Z
2019-08-28T04:00:49Z,42.805,6.029,13.2958,4.59970,2469.937,2019-8-28T06:01:10Z
2019-08-28T04:03:52Z,42.805,6.029,13.2962,4.59979,2469.923,2019-8-28T06:04:14Z
2019-08-28T04:06:55Z,42.805,6.029,13.2959,4.59973,2469.9,2019-8-28T06:07:17Z
2019-08-28T04:09:58Z,42.805,6.029,13.2957,4.59978,2469.96,2019-8-28T06:10:20Z
2019-08-28T04:13:02Z,42.805,6.029,13.2958,4.59979,2469.947,2019-8-28T06:13:24Z
2019-08-28T04:16:05Z,42.805,6.029,13.2962,4.59972,2469.947,2019-8-28T06:16:27Z
2019-08-28T04:19:08Z,42.805,6.029,13.2962,4.59973,2469.96,2019-8-28T06:19:30Z
2019-08-28T04:22:12Z,42.805,6.029,13.2958,4.59974,2469.923,2019-8-28T06:22:33Z
2019-08-28T04:25:15Z,42.805,6.029,13.2962,4.59973,2469.96,2019-8-28T06:25:36Z
2019-08-28T04:28:18Z,42.805,6.029,13.2957,4.59970,2469.923,2019-8-28T06:28:40Z
2019-08-28T04:31:21Z,42.805,6.029,13.2963,4.59971,2469.923,2019-8-28T06:31:43Z
2019-08-28T04:34:24Z,42.805,6.029,13.2968,4.59979,2469.96,2019-8-28T06:34:46Z
2019-08-28T04:37:28Z,42.805,6.029,13.2961,4.59976,2469.947,2019-8-28T06:37:49Z
2019-08-28T04:40:31Z,42.805,6.029,13.2963,4.59975,2469.984,2019-8-28T06:40:53Z
2019-08-28T04:43:34Z,42.805,6.029,13.2962,4.59972,2469.947,2019-8-28T06:43:56Z
2019-08-28T04:46:37Z,42.805,6.029,13.2958,4.59973,2469.937,2019-8-28T06:46:59Z
2019-08-28T04:49:40Z,42.805,6.029,13.2966,4.59974,2469.97,2019-8-28T06:50:02Z
2019-08-28T04:52:44Z,42.805,6.029,13.2957,4.59977,2469.984,2019-8-28T06:53:05Z
2019-08-28T04:55:47Z,42.805,6.029,13.2959,4.59971,2469.96,2019-8-28T06:56:09Z
2019-08-28T04:58:50Z,42.805,6.029,13.2960,4.59975,2469.96,2019-8-28T06:59:12Z
2019-08-28T05:01:53Z,42.805,6.029,13.2960,4.59975,2469.96,2019-8-28T07:02:15Z
2019-08-28T05:04:57Z,42.805,6.029,13.2961,4.59964,2469.97,2019-8-28T07:05:18Z
2019-08-28T05:08:00Z,42.805,6.029,13.2957,4.59967,2469.96,2019-8-28T07:08:22Z
2019-08-28T05:11:03Z,42.805,6.029,13.2960,4.59965,2469.97,2019-8-28T07:11:25Z
2019-08-28T05:14:06Z,42.805,6.029,13.2958,4.59966,2469.96,2019-8-28T07:14:28Z
2019-08-28T05:17:10Z,42.805,6.029,13.2962,4.59968,2469.96,2019-8-28T07:17:31Z
2019-08-28T05:20:13Z,42.805,6.029,13.2958,4.59964,2469.947,2019-8-28T07:20:34Z
2019-08-28T05:23:16Z,42.805,6.029,13.2961,4.59966,2469.984,2019-8-28T07:23:38Z
2019-08-28T05:26:19Z,42.805,6.029,13.2957,4.59959,2469.96,2019-8-28T07:26:41Z
2019-08-28T05:29:22Z,42.805,6.029,13.2958,4.59964,2469.96,2019-8-28T07:29:44Z
2019-08-28T05:32:26Z,42.805,6.029,13.2956,4.59960,2469.97,2019-8-28T07:32:47Z
2019-08-28T05:35:29Z,42.805,6.029,13.2961,4.59960,2469.933,2019-8-28T07:35:51Z
2019-08-28T05:38:32Z,42.805,6.029,13.2958,4.59963,2469.947,2019-8-28T07:38:54Z
2019-08-28T05:41:35Z,42.805,6.029,13.2960,4.59961,2469.97,2019-8-28T07:41:57Z
2019-08-28T05:44:38Z,42.805,6.029,13.2960,4.59961,2469.947,2019-8-28T07:45:00Z
2019-08-28T05:47:42Z,42.805,6.029,13.2957,4.59964,2469.933,2019-8-28T07:48:03Z
2019-08-28T05:50:45Z,42.805,6.029,13.2960,4.59963,2469.947,2019-8-28T07:51:07Z
2019-08-28T05:53:48Z,42.805,6.029,13.2962,4.59961,2469.947,2019-8-28T07:54:10Z
2019-08-28T05:56:51Z,42.805,6.029,13.2957,4.59962,2469.947,2019-8-28T07:57:13Z
2019-08-28T05:59:55Z,42.805,6.029,13.2958,4.59960,2469.923,2019-8-28T08:00:16Z
2019-08-28T06:02:58Z,42.805,6.029,13.2961,4.59961,2469.937,2019-8-28T08:03:20Z
2019-08-28T06:06:01Z,42.805,6.029,13.2961,4.59960,2469.984,2019-8-28T08:06:23Z
2019-08-28T06:09:04Z,42.805,6.029,13.2962,4.59960,2469.96,2019-8-28T08:09:26Z
2019-08-28T06:12:07Z,42.805,6.029,13.2961,4.59958,2469.97,2019-8-28T08:12:29Z
2019-08-28T06:15:11Z,42.805,6.029,13.2957,4.59961,2469.984,2019-8-28T08:15:32Z
2019-08-28T06:18:14Z,42.805,6.029,13.2957,4.59958,2469.97,2019-8-28T08:18:36Z
2019-08-28T06:21:17Z,42.805,6.029,13.2957,4.59961,2469.923,2019-8-28T08:21:39Z
2019-08-28T06:24:20Z,42.805,6.029,13.2958,4.59957,2469.96,2019-8-28T08:24:42Z
2019-08-28T06:27:24Z,42.805,6.029,13.2958,4.59959,2469.923,2019-8-28T08:27:45Z
2019-08-28T06:30:27Z,42.805,6.029,13.2961,4.59958,2469.937,2019-8-28T08:30:48Z
2019-08-28T06:33:30Z,42.805,6.029,13.2961,4.59959,2469.923,2019-8-28T08:33:52Z
2019-08-28T06:36:33Z,42.805,6.029,13.2958,4.59958,2469.923,2019-8-28T08:36:55Z
2019-08-28T06:39:36Z,42.805,6.029,13.2958,4.59958,2469.923,2019-8-28T08:39:58Z
2019-08-28T06:42:40Z,42.805,6.029,13.2957,4.59958,2469.947,2019-8-28T08:43:01Z
2019-08-28T06:45:43Z,42.805,6.029,13.2957,4.59958,2469.923,2019-8-28T08:46:05Z
2019-08-28T06:48:46Z,42.805,6.029,13.2955,4.59960,2469.923,2019-8-28T08:49:08Z
2019-08-28T06:51:49Z,42.805,6.029,13.2966,4.59958,2469.914,2019-8-28T08:52:11Z
2019-08-28T06:54:53Z,42.805,6.029,13.2961,4.59960,2469.96,2019-8-28T08:55:14Z
2019-08-28T06:57:56Z,42.805,6.029,13.2960,4.59960,2469.96,2019-8-28T08:58:18Z
2019-08-28T07:00:59Z,42.805,6.029,13.2959,4.59964,2469.937,2019-8-28T09:01:21Z
2019-08-28T07:04:02Z,42.805,6.029,13.2959,4.59958,2469.937,2019-8-28T09:04:24Z
2019-08-28T07:07:06Z,42.805,6.029,13.2958,4.59960,2469.9,2019-8-28T09:07:27Z
2019-08-28T07:10:09Z,42.805,6.029,13.2957,4.59958,2469.937,2019-8-28T09:10:31Z
2019-08-28T07:13:12Z,42.805,6.029,13.2954,4.59961,2469.914,2019-8-28T09:13:34Z
2019-08-28T07:16:15Z,42.805,6.029,13.2958,4.59958,2469.876,2019-8-28T09:16:37Z
2019-08-28T07:19:18Z,42.805,6.029,13.2957,4.59961,2469.923,2019-8-28T09:19:40Z
2019-08-28T07:22:22Z,42.805,6.029,13.2957,4.59958,2469.923,2019-8-28T09:22:43Z
2019-08-28T07:25:25Z,42.805,6.029,13.2960,4.59958,2469.914,2019-8-28T09:25:47Z
2019-08-28T07:28:28Z,42.805,6.029,13.2959,4.59956,2469.923,2019-8-28T09:28:50Z
2019-08-28T07:31:31Z,42.805,6.029,13.2956,4.59958,2469.914,2019-8-28T09:31:53Z
2019-08-28T07:34:35Z,42.805,6.029,13.2960,4.59959,2469.923,2019-8-28T09:34:56Z
2019-08-28T07:37:38Z,42.805,6.029,13.2959,4.59957,2469.876,2019-8-28T09:38:00Z
2019-08-28T07:40:41Z,42.805,6.029,13.2958,4.59958,2469.914,2019-8-28T09:41:03Z
2019-08-28T07:43:44Z,42.805,6.029,13.2959,4.59961,2469.937,2019-8-28T09:44:06Z
2019-08-28T07:46:48Z,42.805,6.029,13.2961,4.59958,2469.9,2019-8-28T09:47:09Z
2019-08-28T07:49:51Z,42.805,6.029,13.2961,4.59957,2469.914,2019-8-28T09:50:13Z
2019-08-28T07:52:54Z,42.805,6.029,13.2962,4.59957,2469.876,2019-8-28T09:53:16Z
2019-08-28T07:55:57Z,42.805,6.029,13.2957,4.59958,2469.9,2019-8-28T09:56:19Z
2019-08-28T07:59:01Z,42.805,6.029,13.2960,4.59957,2469.876,2019-8-28T09:59:22Z
2019-08-28T08:02:04Z,42.805,6.029,13.2960,4.59959,2469.923,2019-8-28T10:02:26Z
2019-08-28T08:05:07Z,42.805,6.029,13.2957,4.59959,2469.876,2019-8-28T10:05:29Z
2019-08-28T08:08:10Z,42.805,6.029,13.2959,4.59958,2469.914,2019-8-28T10:08:32Z
2019-08-28T08:11:14Z,42.805,6.029,13.2959,4.59961,2469.9,2019-8-28T10:11:35Z
2019-08-28T08:14:17Z,42.805,6.029,13.2958,4.59959,2469.9,2019-8-28T10:14:39Z
2019-08-28T08:17:20Z,42.805,6.029,13.2960,4.59963,2469.853,2019-8-28T10:17:42Z
2019-08-28T08:20:23Z,42.805,6.029,13.2961,4.59958,2469.867,2019-8-28T10:20:45Z
2019-08-28T08:23:27Z,42.805,6.029,13.2959,4.59958,2469.876,2019-8-28T10:23:48Z
2019-08-28T08:26:30Z,42.805,6.029,13.2958,4.59959,2469.876,2019-8-28T10:26:51Z
2019-08-28T08:29:33Z,42.805,6.029,13.2963,4.59958,2469.876,2019-8-28T10:29:55Z
2019-08-28T08:32:36Z,42.805,6.029,13.2961,4.59958,2469.853,2019-8-28T10:32:58Z
2019-08-28T08:35:39Z,42.805,6.029,13.2961,4.59958,2469.853,2019-8-28T10:36:01Z
2019-08-28T08:38:43Z,42.805,6.029,13.2961,4.59958,2469.9,2019-8-28T10:39:04Z
2019-08-28T08:41:46Z,42.805,6.029,13.2957,4.59958,2469.89,2019-8-28T10:42:08Z
2019-08-28T08:44:49Z,42.805,6.029,13.2957,4.59958,2469.853,2019-8-28T10:45:11Z
2019-08-28T08:47:53Z,42.805,6.029,13.2962,4.59959,2469.839,2019-8-28T10:48:14Z
2019-08-28T08:50:56Z,42.805,6.029,13.2958,4.59958,2469.867,2019-8-28T10:51:17Z
2019-08-28T08:53:59Z,42.805,6.029,13.2959,4.59958,2469.844,2019-8-28T10:54:21Z
2019-08-28T08:57:02Z,42.805,6.029,13.2959,4.59959,2469.876,2019-8-28T10:57:24Z
2019-08-28T09:00:05Z,42.805,6.029,13.2957,4.59957,2469.867,2019-8-28T11:00:27Z
2019-08-28T09:03:09Z,42.805,6.029,13.2958,4.59957,2469.867,2019-8-28T11:03:30Z
2019-08-28T09:06:12Z,42.805,6.029,13.2961,4.59956,2469.867,2019-8-28T11:06:34Z
2019-08-28T09:09:15Z,42.805,6.029,13.2956,4.59955,2469.876,2019-8-28T11:09:37Z
2019-08-28T09:12:18Z,42.805,6.029,13.2957,4.59955,2469.853,2019-8-28T11:12:40Z
2019-08-28T09:15:22Z,42.805,6.029,13.2958,4.59955,2469.867,2019-8-28T11:15:43Z
2019-08-28T09:18:25Z,42.805,6.029,13.2957,4.59956,2469.853,2019-8-28T11:18:46Z
2019-08-28T09:21:28Z,42.805,6.029,13.2956,4.59956,2469.844,2019-8-28T11:21:50Z
2019-08-28T09:24:31Z,42.805,6.029,13.2958,4.59956,2469.83,2019-8-28T11:24:53Z
2019-08-28T09:27:35Z,42.805,6.029,13.2959,4.59958,2469.867,2019-8-28T11:27:56Z
2019-08-28T09:30:38Z,42.805,6.029,13.2958,4.59956,2469.83,2019-8-28T11:31:00Z
2019-08-28T09:33:41Z,42.805,6.029,13.2958,4.59957,2469.83,2019-8-28T11:34:03Z
2019-08-28T09:36:44Z,42.805,6.029,13.2957,4.59954,2469.867,2019-8-28T11:37:06Z
2019-08-28T09:39:48Z,42.805,6.029,13.2957,4.59956,2469.867,2019-8-28T11:40:09Z
2019-08-28T09:42:51Z,42.805,6.029,13.2956,4.59956,2469.806,2019-8-28T11:43:12Z
2019-08-28T09:45:54Z,42.805,6.029,13.2958,4.59956,2469.844,2019-8-28T11:46:16Z
2019-08-28T09:48:57Z,42.805,6.029,13.2955,4.59959,2469.876,2019-8-28T11:49:19Z
2019-08-28T09:52:01Z,42.805,6.029,13.2955,4.59958,2469.806,2019-8-28T11:52:22Z
2019-08-28T09:55:04Z,42.805,6.029,13.2957,4.59958,2469.806,2019-8-28T11:55:25Z
2019-08-28T09:58:07Z,42.805,6.029,13.2957,4.59957,2469.844,2019-8-28T11:58:29Z
2019-08-28T10:01:10Z,42.805,6.029,13.2957,4.59957,2469.797,2019-8-28T12:01:32Z
2019-08-28T10:04:13Z,42.805,6.029,13.2958,4.59959,2469.83,2019-8-28T12:04:35Z
2019-08-28T10:07:17Z,42.805,6.029,13.2957,4.59957,2469.76,2019-8-28T12:07:39Z
2019-08-28T10:10:20Z,42.805,6.029,13.2953,4.59958,2469.844,2019-8-28T12:10:42Z
2019-08-28T10:13:23Z,42.805,6.029,13.2958,4.59955,2469.844,2019-8-28T12:13:45Z
2019-08-28T10:16:27Z,42.805,6.029,13.2958,4.59958,2469.797,2019-8-28T12:16:48Z
2019-08-28T10:19:30Z,42.805,6.029,13.2954,4.59961,2469.853,2019-8-28T12:19:51Z
2019-08-28T10:22:33Z,42.805,6.029,13.2958,4.59957,2469.806,2019-8-28T12:22:55Z
2019-08-28T10:25:36Z,42.805,6.029,13.2959,4.59956,2469.83,2019-8-28T12:25:58Z
2019-08-28T10:28:39Z,42.805,6.029,13.2957,4.59957,2469.844,2019-8-28T12:29:01Z
2019-08-28T10:31:43Z,42.805,6.029,13.2961,4.59955,2469.783,2019-8-28T12:32:04Z
2019-08-28T10:34:46Z,42.805,6.029,13.2956,4.59955,2469.821,2019-8-28T12:35:08Z
2019-08-28T10:37:49Z,42.805,6.029,13.2957,4.59958,2469.797,2019-8-28T12:38:11Z
2019-08-28T10:40:52Z,42.805,6.029,13.2955,4.59954,2469.797,2019-8-28T12:41:14Z
2019-08-28T10:43:56Z,42.805,6.029,13.2955,4.59956,2469.783,2019-8-28T12:44:17Z
2019-08-28T10:46:59Z,42.805,6.029,13.2958,4.59954,2469.783,2019-8-28T12:47:20Z
2019-08-28T10:50:02Z,42.805,6.029,13.2960,4.59954,2469.797,2019-8-28T12:50:24Z
2019-08-28T10:53:05Z,42.805,6.029,13.2957,4.59958,2469.797,2019-8-28T12:53:27Z
2019-08-28T10:56:08Z,42.805,6.029,13.2958,4.59956,2469.783,2019-8-28T12:56:30Z
2019-08-28T10:59:12Z,42.805,6.029,13.2953,4.59956,2469.806,2019-8-28T12:59:33Z
2019-08-28T11:02:15Z,42.805,6.029,13.2957,4.59957,2469.797,2019-8-28T13:02:36Z
2019-08-28T11:05:18Z,42.805,6.029,13.2957,4.59958,2469.806,2019-8-28T13:05:40Z
2019-08-28T11:08:21Z,42.805,6.029,13.2954,4.59958,2469.783,2019-8-28T13:08:43Z
2019-08-28T11:11:24Z,42.805,6.029,13.2957,4.59956,2469.806,2019-8-28T13:11:46Z
2019-08-28T11:14:28Z,42.805,6.029,13.2957,4.59956,2469.83,2019-8-28T13:14:49Z
2019-08-28T11:17:31Z,42.805,6.029,13.2960,4.59957,2469.797,2019-8-28T13:17:52Z
2019-08-28T11:20:34Z,42.805,6.029,13.2957,4.59956,2469.76,2019-8-28T13:20:56Z
2019-08-28T11:23:37Z,42.805,6.029,13.2958,4.59959,2469.821,2019-8-28T13:23:59Z
2019-08-28T11:26:40Z,42.805,6.029,13.2958,4.59961,2469.844,2019-8-28T13:27:02Z
2019-08-28T11:29:44Z,42.805,6.029,13.2958,4.59961,2469.797,2019-8-28T13:30:05Z
2019-08-28T11:32:47Z,42.805,6.029,13.2957,4.59959,2469.783,2019-8-28T13:33:08Z
2019-08-28T11:35:50Z,42.805,6.029,13.2958,4.59958,2469.83,2019-8-28T13:36:12Z
2019-08-28T11:38:53Z,42.805,6.029,13.2955,4.59957,2469.821,2019-8-28T13:39:15Z
2019-08-28T11:41:56Z,42.805,6.029,13.2955,4.59956,2469.797,2019-8-28T13:42:18Z
2019-08-28T11:45:00Z,42.805,6.029,13.2957,4.59955,2469.806,2019-8-28T13:45:21Z
2019-08-28T11:48:03Z,42.805,6.029,13.2952,4.59956,2469.797,2019-8-28T13:48:24Z
2019-08-28T11:51:06Z,42.805,6.029,13.2958,4.59956,2469.783,2019-8-28T13:51:28Z
2019-08-28T11:54:09Z,42.805,6.029,13.2958,4.59955,2469.773,2019-8-28T13:54:31Z
2019-08-28T11:57:12Z,42.805,6.029,13.2959,4.59956,2469.806,2019-8-28T13:57:34Z
2019-08-28T12:00:16Z,42.805,6.029,13.2957,4.59959,2469.821,2019-8-28T14:00:37Z
2019-08-28T12:03:19Z,42.805,6.029,13.2954,4.59956,2469.783,2019-8-28T14:03:40Z
2019-08-28T12:06:22Z,42.805,6.029,13.2954,4.59958,2469.76,2019-8-28T14:06:44Z
2019-08-28T12:09:25Z,42.805,6.029,13.2957,4.59954,2469.783,2019-8-28T14:09:47Z
2019-08-28T12:12:28Z,42.805,6.029,13.2958,4.59956,2469.783,2019-8-28T14:12:50Z
2019-08-28T12:15:32Z,42.805,6.029,13.2957,4.59956,2469.821,2019-8-28T14:15:53Z
2019-08-28T12:18:35Z,42.805,6.029,13.2958,4.59958,2469.783,2019-8-28T14:18:56Z
2019-08-28T12:21:38Z,42.805,6.029,13.2952,4.59954,2469.806,2019-8-28T14:22:00Z
2019-08-28T12:24:41Z,42.805,6.029,13.2953,4.59957,2469.821,2019-8-28T14:25:03Z
2019-08-28T12:27:44Z,42.805,6.029,13.2957,4.59955,2469.806,2019-8-28T14:28:06Z
2019-08-28T12:30:48Z,42.805,6.029,13.2956,4.59956,2469.783,2019-8-28T14:31:09Z
2019-08-28T12:33:51Z,42.805,6.029,13.2957,4.59956,2469.783,2019-8-28T14:34:12Z
2019-08-28T12:36:54Z,42.805,6.029,13.2955,4.59954,2469.806,2019-8-28T14:37:16Z
2019-08-28T12:39:57Z,42.805,6.029,13.2958,4.59955,2469.797,2019-8-28T14:40:19Z
2019-08-28T12:43:00Z,42.805,6.029,13.2957,4.59956,2469.797,2019-8-28T14:43:22Z
2019-08-28T12:46:04Z,42.805,6.029,13.2951,4.59951,2469.821,2019-8-28T14:46:25Z
2019-08-28T12:49:07Z,42.805,6.029,13.2957,4.59954,2469.806,2019-8-28T14:49:29Z
2019-08-28T12:52:10Z,42.805,6.029,13.2957,4.59957,2469.783,2019-8-28T14:52:32Z
2019-08-28T12:55:13Z,42.805,6.029,13.2953,4.59954,2469.806,2019-8-28T14:55:35Z
2019-08-28T12:58:17Z,42.805,6.029,13.2954,4.59955,2469.83,2019-8-28T14:58:38Z
2019-08-28T13:01:20Z,42.805,6.029,13.2956,4.59956,2469.821,2019-8-28T15:01:41Z
2019-08-28T13:04:23Z,42.805,6.029,13.2954,4.59955,2469.783,2019-8-28T15:04:45Z
2019-08-28T13:07:26Z,42.805,6.029,13.2957,4.59956,2469.844,2019-8-28T15:07:48Z
2019-08-28T13:10:29Z,42.805,6.029,13.2958,4.59955,2469.821,2019-8-28T15:10:51Z
2019-08-28T13:13:33Z,42.805,6.029,13.2954,4.59958,2469.806,2019-8-28T15:13:54Z
2019-08-28T13:16:36Z,42.805,6.029,13.2957,4.59954,2469.83,2019-8-28T15:16:57Z
2019-08-28T13:19:39Z,42.805,6.029,13.2956,4.59955,2469.783,2019-8-28T15:20:01Z
2019-08-28T13:22:42Z,42.805,6.029,13.2959,4.59955,2469.806,2019-8-28T15:23:04Z
2019-08-28T13:25:45Z,42.805,6.029,13.2954,4.59956,2469.806,2019-8-28T15:26:07Z
2019-08-28T13:28:49Z,42.805,6.029,13.2957,4.59962,2469.844,2019-8-28T15:29:10Z
2019-08-28T13:31:52Z,42.805,6.029,13.2956,4.59955,2469.83,2019-8-28T15:32:13Z
2019-08-28T13:34:55Z,42.805,6.029,13.2957,4.59967,2469.844,2019-8-28T15:35:17Z
2019-08-28T13:37:58Z,42.805,6.029,13.2954,4.59959,2469.821,2019-8-28T15:38:20Z
2019-08-28T13:41:01Z,42.805,6.029,13.2958,4.59963,2469.806,2019-8-28T15:41:23Z
2019-08-28T13:44:05Z,42.805,6.029,13.2957,4.59958,2469.83,2019-8-28T15:44:26Z
2019-08-28T13:47:08Z,42.805,6.029,13.2953,4.59960,2469.797,2019-8-28T15:47:29Z
2019-08-28T13:50:11Z,42.805,6.029,13.2954,4.59959,2469.844,2019-8-28T15:50:33Z
2019-08-28T13:53:14Z,42.805,6.029,13.2955,4.59958,2469.844,2019-8-28T15:53:36Z
2019-08-28T13:56:17Z,42.805,6.029,13.2957,4.59957,2469.853,2019-8-28T15:56:39Z
2019-08-28T13:59:21Z,42.805,6.029,13.2955,4.59957,2469.844,2019-8-28T15:59:42Z
2019-08-28T14:02:24Z,42.805,6.029,13.2957,4.59960,2469.83,2019-8-28T16:02:45Z
2019-08-28T14:05:27Z,42.805,6.029,13.2957,4.59956,2469.83,2019-8-28T16:05:49Z
2019-08-28T14:08:30Z,42.805,6.029,13.2956,4.59956,2469.853,2019-8-28T16:08:52Z
2019-08-28T14:11:33Z,42.805,6.029,13.2953,4.59958,2469.914,2019-8-28T16:11:55Z
2019-08-28T14:14:37Z,42.805,6.029,13.2954,4.59957,2469.853,2019-8-28T16:14:58Z
2019-08-28T14:17:40Z,42.805,6.029,13.2956,4.59957,2469.853,2019-8-28T16:18:01Z
2019-08-28T14:20:43Z,42.805,6.029,13.2957,4.59958,2469.853,2019-8-28T16:21:05Z
2019-08-28T14:23:46Z,42.805,6.029,13.2957,4.59958,2469.867,2019-8-28T16:24:08Z
2019-08-28T14:26:49Z,42.805,6.029,13.2953,4.59962,2469.876,2019-8-28T16:27:11Z
2019-08-28T14:29:53Z,42.805,6.029,13.2955,4.59958,2469.876,2019-8-28T16:30:14Z
2019-08-28T14:32:56Z,42.805,6.029,13.2956,4.59961,2469.853,2019-8-28T16:33:17Z
2019-08-28T14:35:59Z,42.805,6.029,13.2955,4.59959,2469.876,2019-8-28T16:36:21Z
2019-08-28T14:39:02Z,42.805,6.029,13.2957,4.59961,2469.876,2019-8-28T16:39:24Z
2019-08-28T14:42:05Z,42.805,6.029,13.2960,4.59958,2469.876,2019-8-28T16:42:27Z
2019-08-28T14:45:09Z,42.805,6.029,13.2953,4.59963,2469.89,2019-8-28T16:45:30Z
2019-08-28T14:48:12Z,42.805,6.029,13.2961,4.59961,2469.914,2019-8-28T16:48:33Z
2019-08-28T14:51:15Z,42.805,6.029,13.2959,4.59965,2469.9,2019-8-28T16:51:37Z
2019-08-28T14:54:18Z,42.805,6.029,13.2957,4.59961,2469.9,2019-8-28T16:54:40Z
2019-08-28T14:57:21Z,42.805,6.029,13.2953,4.59964,2469.923,2019-8-28T16:57:43Z
2019-08-28T15:00:25Z,42.805,6.029,13.2954,4.59958,2469.923,2019-8-28T17:00:46Z
2019-08-28T15:03:28Z,42.805,6.029,13.2959,4.59964,2469.937,2019-8-28T17:03:50Z
2019-08-28T15:06:31Z,42.805,6.029,13.2962,4.59965,2469.876,2019-8-28T17:06:53Z
2019-08-28T15:09:34Z,42.805,6.029,13.2954,4.59961,2469.914,2019-8-28T17:09:56Z
2019-08-28T15:12:37Z,42.805,6.029,13.2956,4.59964,2469.9,2019-8-28T17:12:59Z
2019-08-28T15:15:41Z,42.805,6.029,13.2957,4.59966,2469.923,2019-8-28T17:16:02Z